DW0148 Weather Reports


Display with metric or nautical units.
time (UTC)temp
F
wind
direction
speed
MPH
gust
MPH
rain 1hr
in
rain 24hr
in
rain mn
in
humidity
%
barometer
mb
20200804081350 64 279 1.0 2.0 0.00 0.92 0.00 97 1011.9
20200804080844 64 266 1.0 2.0 0.00 0.92 0.00 97 1011.9
20200804080347 64 31 0.0 0.0 0.00 0.92 0.00 97 1011.9
20200804075842 64 32 0.0 0.0 0.00 0.92 0.00 97 1011.9
20200804075341 64 32 0.0 0.0 0.00 0.92 0.00 97 1011.5
20200804074839 64 32 0.0 0.0 0.00 0.92 0.00 97 1011.9
20200804074338 64 32 0.0 0.0 0.00 0.92 0.00 97 1011.9
20200804073837 64 32 0.0 0.0 0.00 0.92 0.00 97 1011.9
20200804073209 64 32 0.0 0.0 0.00 0.92 0.00 97 1011.9
20200804072706 64 32 0.0 0.0 0.00 0.92 0.00 97 1011.9
20200804072205 64 32 0.0 0.0 0.00 0.92 0.00 97 1011.9
20200804071654 64 32 0.0 0.0 0.00 0.92 0.00 97 1011.9
20200804071025 64 32 0.0 0.0 0.00 0.92 0.00 97 1011.9
20200804070524 64 32 0.0 0.0 0.00 0.92 0.00 97 1011.9
20200804065838 64 32 0.0 0.0 0.00 0.92 0.00 97 1011.9
20200804065336 65 32 0.0 2.0 0.00 0.92 0.00 96 1011.9
20200804064708 65 32 0.0 2.0 0.00 0.92 0.00 96 1011.9
20200804064207 65 32 0.0 2.0 0.00 0.92 0.00 96 1011.9
20200804063706 65 32 1.0 2.0 0.00 0.92 0.00 96 1011.9
20200804063205 65 32 0.0 3.0 0.00 0.92 0.00 96 1011.9
20200804062705 65 32 0.0 3.0 0.00 0.92 0.00 96 1011.9
20200804062202 65 32 0.0 3.0 0.00 0.92 0.00 96 1011.9
20200804061702 65 32 2.0 3.0 0.00 0.92 0.00 96 1011.9
20200804061200 65 277 0.0 3.0 0.00 0.92 0.00 96 1012.2
20200804060659 65 277 0.0 3.0 0.00 0.92 0.00 97 1012.2
20200804060158 65 29 0.0 3.0 0.00 0.92 0.00 96 1012.2
20200804055656 65 326 1.0 3.0 0.00 0.92 0.00 96 1012.2
20200804055155 65 29 0.0 3.0 0.00 0.92 0.00 96 1012.2
20200804054654 66 31 2.0 3.0 0.00 0.92 0.00 96 1012.2
20200804054202 66 25 0.0 3.0 0.00 0.92 0.00 96 1012.2
20200804053651 66 42 1.0 3.0 0.00 0.92 0.00 97 1012.2
20200804053148 66 318 0.0 2.0 0.00 0.92 0.00 97 1012.2
20200804052509 65 360 0.0 2.0 0.00 0.92 0.00 96 1012.2
20200804051557 65 360 0.0 2.0 0.00 0.92 0.00 96 1012.5
20200804051052 66 360 0.0 2.0 0.00 0.92 0.00 96 1012.5
20200804050551 65 17 1.0 2.0 0.00 0.92 0.00 96 1012.5
20200804050051 65 20 0.0 2.0 0.00 0.92 0.00 96 1012.5
20200804045549 66 20 1.0 2.0 0.00 0.92 0.00 96 1012.5
20200804045047 66 20 0.0 2.0 0.00 0.92 0.00 96 1012.5
20200804044546 66 20 0.0 3.0 0.00 0.92 0.00 96 1012.5
20200804044045 66 25 1.0 3.0 0.00 0.92 0.00 96 1012.5
20200804043544 66 25 0.0 2.0 0.00 0.92 0.00 96 1012.5
20200804043042 66 25 0.0 2.0 0.00 0.92 0.00 96 1012.5
20200804042413 66 25 0.0 2.0 0.00 0.92 0.00 96 1012.5
20200804041911 66 25 0.0 2.0 0.00 0.92 0.00 96 1012.5
20200804041411 66 25 0.0 2.0 0.00 0.92 0.00 96 1012.5
20200804040912 66 18 0.0 0.0 0.00 0.92 0.00 96 1012.2
20200804040408 66 19 0.0 0.0 0.00 0.92 0.00 96 1012.2
20200804035906 66 19 0.0 2.0 0.00 0.92 0.92 96 1012.2
20200804035405 66 18 0.0 2.0 0.00 0.92 0.92 96 1012.2
20200804034904 66 18 0.0 2.0 0.00 0.92 0.92 96 1012.2
20200804034230 66 18 0.0 0.0 0.00 0.92 0.92 96 1011.9
20200804033728 66 18 0.0 0.0 0.00 0.92 0.92 96 1011.9
20200804033227 67 18 0.0 0.0 0.00 0.92 0.92 95 1011.9
20200804032725 67 18 0.0 0.0 0.00 0.92 0.92 95 1012.2
20200804032223 67 18 0.0 0.0 0.00 0.92 0.92 95 1012.2
20200804031719 67 18 0.0 0.0 0.00 0.92 0.92 95 1012.2
20200804031217 67 18 0.0 2.0 0.00 0.92 0.92 95 1012.5
20200804030717 67 18 0.0 2.0 0.00 0.92 0.92 95 1012.5
20200804030215 68 18 0.0 2.0 0.00 0.92 0.92 95 1012.5
20200804025715 68 18 1.0 2.0 0.00 0.92 0.92 96 1012.9
20200804025212 68 20 1.0 5.0 0.00 0.92 0.92 96 1012.9
20200804024711 68 20 0.0 5.0 0.04 0.92 0.92 95 1012.9
20200804024210 68 20 0.0 5.0 0.47 0.92 0.92 95 1012.9
20200804023710 68 28 2.0 5.0 0.71 0.92 0.92 95 1012.5
20200804023207 68 205 1.0 2.0 0.75 0.92 0.92 95 1012.5
20200804022706 68 203 0.0 3.0 0.80 0.92 0.92 94 1012.5
20200804022204 68 204 0.0 6.0 0.81 0.92 0.92 94 1012.5
20200804021703 68 338 1.0 6.0 0.82 0.92 0.92 95 1012.5
20200804021202 68 347 1.0 12.0 0.82 0.92 0.92 95 1012.5
20200804020701 68 6 2.0 15.0 0.82 0.92 0.92 94 1012.5
20200804020200 68 9 2.0 18.0 0.82 0.92 0.92 92 1012.2
20200804015700 68 357 2.0 20.0 0.82 0.92 0.92 91 1012.2
20200804015200 68 351 4.0 20.0 0.82 0.92 0.92 89 1011.9
20200804014656 69 50 11.0 18.0 0.76 0.86 0.86 90 1012.2
20200804014129 70 156 5.0 18.0 0.30 0.40 0.40 90 1012.5
20200804013627 71 182 4.0 24.0 0.10 0.20 0.20 88 1012.5
20200804013126 72 177 6.0 24.0 0.08 0.18 0.18 89 1012.2
20200804012626 73 169 5.0 24.0 0.02 0.12 0.12 88 1012.2
20200804012102 73 185 9.0 20.0 0.01 0.11 0.11 89 1011.9
20200804011558 74 167 3.0 8.0 0.00 0.10 0.10 92 1011.2
20200804011057 74 48 0.0 2.0 0.00 0.10 0.10 91 1011.2
20200804010321 75 49 0.0 2.0 0.00 0.10 0.10 90 1011.2
20200804005659 76 48 0.0 2.0 0.00 0.10 0.10 89 1010.8
20200804005151 76 48 0.0 2.0 0.00 0.10 0.10 88 1011.2
20200804004649 77 49 0.0 2.0 0.00 0.10 0.10 87 1010.8
20200804004148 77 49 0.0 2.0 0.00 0.10 0.10 86 1011.2
20200804003642 77 48 0.0 2.0 0.00 0.10 0.10 85 1011.2
20200804003141 77 48 0.0 2.0 0.00 0.10 0.10 85 1011.2
20200804002640 78 48 0.0 2.0 0.00 0.10 0.10 84 1011.2
20200804002139 78 49 1.0 2.0 0.00 0.10 0.10 83 1011.2
20200804001635 79 49 0.0 0.0 0.00 0.10 0.10 83 1011.2
20200804001134 79 49 0.0 0.0 0.00 0.10 0.10 83 1011.2
20200804000634 79 49 0.0 0.0 0.00 0.10 0.10 82 1011.2
20200804000132 80 49 0.0 0.0 0.00 0.10 0.10 80 1010.8
20200803235454 80 49 0.0 0.0 0.00 0.10 0.10 80 1010.8
20200803234952 81 49 0.0 2.0 0.00 0.10 0.10 79 1010.8
20200803234450 81 49 0.0 3.0 0.00 0.10 0.10 78 1010.8
20200803233950 81 49 0.0 3.0 0.00 0.10 0.10 78 1010.8
20200803233446 82 48 0.0 5.0 0.00 0.10 0.10 77 1010.8
20200803232942 82 48 0.0 5.0 0.00 0.10 0.10 72 1010.8
20200803232438 82 57 2.0 5.0 0.00 0.10 0.10 72 1010.8
20200803231940 82 3 2.0 5.0 0.00 0.10 0.10 72 1010.8
20200803231436 83 9 2.0 5.0 0.00 0.10 0.10 73 1010.8
20200803230935 83 347 1.0 5.0 0.00 0.10 0.10 73 1010.8
20200803230433 83 7 1.0 5.0 0.00 0.10 0.10 69 1010.8
20200803225932 83 352 1.0 8.0 0.00 0.10 0.10 69 1010.8
20200803225300 83 55 2.0 8.0 0.00 0.10 0.10 69 1010.8
20200803224633 83 72 1.0 8.0 0.00 0.10 0.10 70 1010.8
20200803224132 83 55 4.0 8.0 0.00 0.10 0.10 70 1010.8
20200803223632 83 188 2.0 5.0 0.00 0.10 0.10 70 1011.2
20200803223129 83 211 2.0 5.0 0.00 0.10 0.10 69 1011.2
20200803222624 83 215 2.0 5.0 0.00 0.10 0.10 70 1011.2
20200803222123 83 59 2.0 5.0 0.00 0.10 0.10 71 1010.8
20200803221618 84 67 2.0 5.0 0.00 0.10 0.10 70 1011.2
20200803221116 84 93 1.0 5.0 0.00 0.10 0.10 70 1011.2
20200803220616 85 41 3.0 5.0 0.00 0.10 0.10 67 1011.2
20200803220114 85 14 1.0 6.0 0.00 0.10 0.10 68 1011.2
20200803215613 85 333 2.0 6.0 0.00 0.10 0.10 66 1011.2
20200803215113 85 286 1.0 8.0 0.00 0.10 0.10 64 1011.2
20200803214610 85 42 2.0 8.0 0.00 0.10 0.10 63 1011.2
20200803213928 85 154 1.0 8.0 0.00 0.10 0.10 65 1011.2
20200803213423 84 350 2.0 11.0 0.00 0.10 0.10 66 1011.2
20200803212920 84 45 5.0 11.0 0.00 0.10 0.10 64 1011.2
20200803212252 84 292 2.0 12.0 0.00 0.10 0.10 69 1011.2
20200803211747 84 26 4.0 12.0 0.00 0.10 0.10 67 1011.2
20200803211246 85 31 2.0 14.0 0.00 0.10 0.10 68 1011.2
20200803210738 86 17 3.0 14.0 0.00 0.10 0.10 65 1011.5
20200803210243 86 79 2.0 11.0 0.00 0.10 0.10 67 1011.5
20200803205736 87 29 5.0 9.0 0.00 0.10 0.10 65 1011.5
20200803205233 87 331 3.0 9.0 0.00 0.10 0.10 60 1011.9
20200803204729 87 53 6.0 9.0 0.00 0.10 0.10 59 1011.9
20200803204230 87 291 2.0 9.0 0.00 0.10 0.10 59 1011.9
20200803203727 87 347 1.0 9.0 0.00 0.10 0.10 62 1011.9
20200803203225 87 101 2.0 11.0 0.00 0.10 0.10 59 1011.9
20200803202725 87 44 5.0 11.0 0.00 0.10 0.10 60 1011.9
20200803202223 87 213 3.0 9.0 0.00 0.10 0.10 62 1012.2
20200803201721 87 231 2.0 5.0 0.00 0.10 0.10 63 1012.2
20200803201219 87 112 3.0 5.0 0.00 0.10 0.10 62 1012.2
20200803200437 87 230 1.0 5.0 0.00 0.10 0.10 63 1011.9
20200803194938 87 295 1.0 5.0 0.00 0.10 0.10 65 1011.9
20200803194439 86 140 1.0 5.0 0.00 0.10 0.10 69 1011.9
20200803193934 86 149 2.0 6.0 0.00 0.10 0.10 68 1011.9
20200803193433 85 137 2.0 6.0 0.00 0.10 0.10 66 1012.2
20200803192932 85 143 2.0 6.0 0.00 0.10 0.10 70 1012.2
20200803192430 85 142 3.0 6.0 0.00 0.10 0.10 69 1012.2
20200803191928 85 152 3.0 6.0 0.00 0.10 0.10 67 1012.5
20200803191429 84 148 2.0 6.0 0.00 0.10 0.10 72 1012.5
20200803190925 84 67 2.0 6.0 0.00 0.10 0.10 70 1012.9
20200803190425 84 128 2.0 6.0 0.00 0.10 0.10 72 1012.9
20200803185923 83 18 1.0 3.0 0.00 0.10 0.10 73 1012.9
20200803185419 82 109 1.0 2.0 0.00 0.10 0.10 72 1013.2
20200803184814 82 210 1.0 3.0 0.00 0.10 0.10 72 1013.2
20200803184311 82 113 1.0 5.0 0.00 0.10 0.10 72 1012.9
20200803183810 83 62 2.0 5.0 0.00 0.10 0.10 71 1012.9
20200803183308 83 94 2.0 5.0 0.00 0.10 0.10 70 1013.2
20200803182807 83 144 2.0 5.0 0.00 0.10 0.10 71 1013.2
20200803182124 83 334 0.0 5.0 0.00 0.10 0.10 73 1013.5
20200803181622 83 337 2.0 3.0 0.00 0.10 0.10 72 1013.5
20200803181123 82 226 0.0 2.0 0.00 0.10 0.10 77 1013.5
20200803180619 81 345 1.0 2.0 0.00 0.10 0.10 76 1013.5
20200803180117 80 42 1.0 2.0 0.00 0.10 0.10 75 1013.5
20200803175615 81 75 1.0 2.0 0.00 0.10 0.10 75 1013.5
20200803175114 81 136 1.0 2.0 0.00 0.10 0.10 76 1013.9
20200803174612 81 176 0.0 3.0 0.00 0.10 0.10 75 1013.9
20200803173942 82 159 1.0 5.0 0.00 0.10 0.10 71 1013.9
20200803173442 82 217 1.0 5.0 0.00 0.10 0.10 73 1014.2
20200803172940 82 157 1.0 5.0 0.00 0.10 0.10 72 1014.2
20200803125745 72 352 3.0 8.0 0.00 0.00 0.00 84 1015.2
20200803125243 72 352 3.0 6.0 0.00 0.00 0.00 85 1014.9
20200803124733 71 357 3.0 6.0 0.00 0.00 0.00 86 1014.9
20200803124105 71 352 1.0 5.0 0.00 0.00 0.00 90 1015.2
20200803123604 70 8 1.0 5.0 0.00 0.00 0.00 91 1014.9
20200803123059 69 226 0.0 3.0 0.00 0.00 0.00 93 1014.9
20200803122558 69 212 1.0 3.0 0.00 0.00 0.00 94 1014.9
20200803122057 69 203 0.0 3.0 0.00 0.00 0.00 96 1014.9
20200803121555 69 202 2.0 3.0 0.00 0.00 0.00 97 1014.9
20200803121028 69 204 0.0 0.0 0.00 0.00 0.00 97 1014.9
20200803120527 68 204 0.0 0.0 0.00 0.00 0.00 97 1014.9
20200803120023 68 204 0.0 0.0 0.00 0.00 0.00 97 1014.9
20200803115459 68 204 0.0 0.0 0.00 0.00 0.00 97 1014.9
20200803114957 68 204 0.0 0.0 0.00 0.00 0.00 97 1014.6
20200803114455 68 204 0.0 0.0 0.00 0.00 0.00 97 1014.6
20200803113930 67 204 0.0 0.0 0.00 0.00 0.00 97 1014.6
20200803113429 67 204 0.0 0.0 0.00 0.00 0.00 97 1014.6
20200803112929 67 204 0.0 0.0 0.00 0.00 0.00 97 1014.6
20200803112427 67 204 0.0 0.0 0.00 0.00 0.00 97 1014.6
20200803111925 67 204 0.0 0.0 0.00 0.00 0.00 97 1014.6
20200803111337 67 204 0.0 0.0 0.00 0.00 0.00 97 1014.6
20200803110837 67 204 0.0 0.0 0.00 0.00 0.00 97 1014.6
20200803110209 67 204 0.0 0.0 0.00 0.00 0.00 97 1014.2
20200803105707 67 204 0.0 0.0 0.00 0.00 0.00 97 1014.2
20200803105206 67 204 0.0 0.0 0.00 0.00 0.00 97 1014.2
20200803104702 67 204 0.0 0.0 0.00 0.00 0.00 97 1014.2
20200803104200 67 204 0.0 0.0 0.00 0.00 0.00 97 1014.2
20200803103659 66 204 0.0 0.0 0.00 0.00 0.00 97 1014.2
20200803103158 66 204 0.0 0.0 0.00 0.00 0.00 97 1014.2
20200803102647 66 204 0.0 0.0 0.00 0.00 0.00 97 1014.2
20200803102144 66 204 0.0 0.0 0.00 0.00 0.00 96 1014.2
20200803101620 66 204 0.0 0.0 0.00 0.00 0.00 96 1014.2
20200803101118 66 204 0.0 0.0 0.00 0.00 0.00 96 1013.9
20200803100616 66 204 0.0 0.0 0.00 0.00 0.00 96 1013.9
20200803100115 66 204 0.0 0.0 0.00 0.00 0.00 96 1013.9
20200803095611 66 204 0.0 0.0 0.00 0.00 0.00 96 1013.9
20200803095110 66 204 0.0 0.0 0.00 0.00 0.00 96 1013.9
20200803094606 66 204 0.0 0.0 0.00 0.00 0.00 96 1013.9
20200803094104 66 204 0.0 0.0 0.00 0.00 0.00 96 1013.9
20200803092606 66 204 0.0 0.0 0.00 0.00 0.00 96 1013.9
20200803092102 66 203 0.0 0.0 0.00 0.00 0.00 96 1013.9
20200803091601 66 204 0.0 0.0 0.00 0.00 0.00 96 1013.5
20200803091059 66 204 0.0 0.0 0.00 0.00 0.00 96 1013.9
20200803090557 66 204 0.0 0.0 0.00 0.00 0.00 96 1013.9
20200803090056 66 204 0.0 0.0 0.00 0.00 0.00 96 1013.9
20200803085546 66 204 0.0 0.0 0.00 0.00 0.00 96 1013.9
20200803085042 66 204 0.0 0.0 0.00 0.00 0.00 96 1013.9
20200803084540 66 204 0.0 0.0 0.00 0.00 0.00 96 1013.9
20200803084039 66 204 0.0 0.0 0.00 0.00 0.00 96 1013.5
20200803083537 66 204 0.0 0.0 0.00 0.00 0.00 96 1013.9
20200803083037 66 204 0.0 0.0 0.00 0.00 0.00 96 1013.9
20200803082532 66 204 0.0 0.0 0.00 0.00 0.00 96 1013.9
20200803082032 66 204 0.0 0.0 0.00 0.00 0.00 96 1013.5